Princeton, MN

3:07 PM CDT on June 25, 2017 (GMT -0500)
Princeton Municipal

Weather History for KPNM - November, 2012

Change the Weather History Date:

Monday, November 19, 2012

  Actual Average Record
Temperature  
Mean Temperature 44 °F -  
Max Temperature 57 °F 35 °F 57 °F (2012)
Min Temperature 32 °F 20 °F 1 °F (1997)
Degree Days  
Heating Degree Days 20    
Moisture  
Dew Point 35 °F    
Average Humidity 65    
Maximum Humidity 93    
Minimum Humidity 48    
Precipitation  
Precipitation 0.00 in - - ()
Sea Level Pressure  
Sea Level Pressure 30.03 in    
Wind  
Wind Speed 6 mph (SSE)    
Max Wind Speed 9 mph    
Max Gust Speed -    
Visibility 10 miles    
Events      
Averages and records for this station are not official NWS values.
T = Trace of Precipitation, MM = Missing Value Source: NWS Daily Summary

Daily Weather History Graph

Daily Weather History Graph

Search for Another Location

Airport or City:

Trip Planner

Search our weather history database for the weather conditions in past years. The results will help you decide how hot, cold, wet, or windy it might be!

Date:

Astronomy

Nov. 19, 2012 Rise Set
Actual Time 7:19 AM CST 4:39 PM CST
Civil Twilight 6:47 AM CST 5:12 PM CST
Nautical Twilight 6:10 AM CST 5:48 PM CST
Astronomical Twilight 5:35 AM CST 6:23 PM CST
Moon 12:16 PM CST (11/19) 11:15 PM CST (11/19)
Length of Visible Light 10h 25m
Length of Day
9h 19m
Waxing Crescent, 41% of the Moon is Illuminated
Nov 19
Waxing Crescent
Nov 20
First Quarter
Nov 28
Full
Dec 6
Last Quarter
Dec 13
New

Hourly Weather History & Observations

Time (CST) Temp. Windchill Dew Point Humidity Pressure Visibility Wind Dir Wind Speed Gust Speed Precip Events Conditions
12:11 AM 46.4 °F 41.9 °F 32.0 °F 57% 30.06 in 10.0 mi SE 9.2 mph - N/A   Clear
12:31 AM 46.4 °F 42.9 °F 32.0 °F 57% 30.06 in 10.0 mi SSE 6.9 mph - N/A   Clear
12:52 AM 46.4 °F 43.5 °F 33.8 °F 62% 30.06 in 10.0 mi SE 5.8 mph - N/A   Mostly Cloudy
1:11 AM 48.2 °F - 33.8 °F 58% 30.06 in 10.0 mi SE 5.8 mph - N/A   Overcast
1:31 AM 48.2 °F - 33.8 °F 58% 30.06 in 10.0 mi SE 5.8 mph - N/A   Overcast
1:52 AM 48.2 °F - 32.0 °F 54% 30.06 in 10.0 mi SE 5.8 mph - N/A   Mostly Cloudy
2:11 AM 46.4 °F 43.5 °F 32.0 °F 57% 30.05 in 10.0 mi SE 5.8 mph - N/A   Scattered Clouds
2:31 AM 46.4 °F 44.3 °F 32.0 °F 57% 30.05 in 10.0 mi ESE 4.6 mph - N/A   Scattered Clouds
2:51 AM 44.6 °F 42.2 °F 32.0 °F 61% 30.05 in 10.0 mi ESE 4.6 mph - N/A   Mostly Cloudy
3:11 AM 44.6 °F 41.4 °F 32.0 °F 61% 30.04 in 10.0 mi SE 5.8 mph - N/A   Mostly Cloudy
3:31 AM 42.8 °F 40.1 °F 32.0 °F 66% 30.04 in 10.0 mi ESE 4.6 mph - N/A   Scattered Clouds
3:51 AM 42.8 °F 40.1 °F 32.0 °F 66% 30.03 in 10.0 mi ESE 4.6 mph - N/A   Clear
4:11 AM 42.8 °F 40.1 °F 32.0 °F 66% 30.02 in 10.0 mi ESE 4.6 mph - N/A   Scattered Clouds
4:32 AM 42.8 °F 40.1 °F 32.0 °F 66% 30.03 in 10.0 mi SE 4.6 mph - N/A   Scattered Clouds
4:51 AM 44.6 °F 41.4 °F 33.8 °F 66% 30.03 in 10.0 mi SE 5.8 mph - N/A   Mostly Cloudy
5:11 AM 44.6 °F 41.4 °F 33.8 °F 66% 30.03 in 10.0 mi SE 5.8 mph - N/A   Overcast
5:32 AM 44.6 °F 42.2 °F 33.8 °F 66% 30.02 in 10.0 mi ESE 4.6 mph - N/A   Overcast
5:51 AM 44.6 °F 41.4 °F 33.8 °F 66% 30.02 in 10.0 mi ESE 5.8 mph - N/A   Scattered Clouds
6:11 AM 44.6 °F 42.2 °F 33.8 °F 66% 30.02 in 10.0 mi SE 4.6 mph - N/A   Clear
6:32 AM 42.8 °F 41.1 °F 33.8 °F 70% 30.02 in 10.0 mi SE 3.5 mph - N/A   Clear
6:51 AM 39.2 °F - 32.0 °F 75% 30.03 in 10.0 mi Calm Calm - N/A   Scattered Clouds
7:11 AM 44.6 °F 41.4 °F 33.8 °F 66% 30.03 in 10.0 mi SE 5.8 mph - N/A   Overcast
7:32 AM 46.4 °F 42.4 °F 33.8 °F 62% 30.02 in 10.0 mi SE 8.1 mph - N/A   Overcast
7:51 AM 46.4 °F 42.4 °F 33.8 °F 62% 30.03 in 10.0 mi SSE 8.1 mph - N/A   Overcast
8:11 AM 48.2 °F - 33.8 °F 58% 30.04 in 10.0 mi SSE 5.8 mph - N/A   Overcast
8:32 AM 48.2 °F - 35.6 °F 62% 30.04 in 10.0 mi SSE 5.8 mph - N/A   Overcast
8:51 AM 48.2 °F - 35.6 °F 62% 30.03 in 10.0 mi SSE 8.1 mph - N/A   Overcast
9:11 AM 48.2 °F - 35.6 °F 62% 30.03 in 10.0 mi SSE 8.1 mph - N/A   Overcast
9:31 AM 50.0 °F - 35.6 °F 58% 30.03 in 10.0 mi SSE 8.1 mph - N/A   Overcast
9:51 AM 50.0 °F - 35.6 °F 58% 30.03 in 10.0 mi SSE 8.1 mph - N/A   Overcast
10:11 AM 50.0 °F - 35.6 °F 58% 30.04 in 10.0 mi SSE 6.9 mph - N/A   Overcast
10:31 AM 51.8 °F - 35.6 °F 54% 30.03 in 10.0 mi SSE 8.1 mph - N/A   Overcast
10:51 AM 53.6 °F - 35.6 °F 51% 30.03 in 10.0 mi South 8.1 mph - N/A   Scattered Clouds
11:11 AM 53.6 °F - 37.4 °F 54% 30.02 in 10.0 mi South 8.1 mph - N/A   Clear
11:31 AM 55.4 °F - 37.4 °F 51% 30.01 in 10.0 mi South 9.2 mph - N/A   Clear
11:51 AM 55.4 °F - 37.4 °F 51% 30.02 in 10.0 mi SSE 6.9 mph - N/A   Clear
12:11 PM 55.4 °F - 37.4 °F 51% 30.01 in 10.0 mi SSW 8.1 mph - N/A   Clear
12:31 PM 57.2 °F - 37.4 °F 48% 30.01 in 10.0 mi SSW 5.8 mph - N/A   Clear
12:51 PM 57.2 °F - 37.4 °F 48% 30.01 in 10.0 mi South 4.6 mph - N/A   Clear
1:11 PM 57.2 °F - 37.4 °F 48% 30.01 in 10.0 mi SSW 8.1 mph - N/A   Mostly Cloudy
1:31 PM 57.2 °F - 37.4 °F 48% 30.01 in 10.0 mi South 4.6 mph - N/A   Overcast
1:51 PM 57.2 °F - 37.4 °F 48% 30.01 in 10.0 mi SSE 6.9 mph - N/A   Overcast
2:11 PM 57.2 °F - 37.4 °F 48% 30.00 in 10.0 mi SSE 5.8 mph - N/A   Scattered Clouds
2:31 PM 57.2 °F - 37.4 °F 48% 30.00 in 10.0 mi SSE 6.9 mph - N/A   Clear
2:51 PM 57.2 °F - 37.4 °F 48% 30.00 in 10.0 mi South 6.9 mph - N/A   Clear
3:11 PM 57.2 °F - 37.4 °F 48% 30.00 in 10.0 mi SSE 4.6 mph - N/A   Clear
3:31 PM 57.2 °F - 37.4 °F 48% 30.01 in 10.0 mi South 4.6 mph - N/A   Clear
3:51 PM 55.4 °F - 37.4 °F 51% 30.01 in 10.0 mi South 4.6 mph - N/A   Clear
4:11 PM 53.6 °F - 37.4 °F 54% 30.02 in 10.0 mi South 3.5 mph - N/A   Clear
4:31 PM 53.6 °F - 37.4 °F 54% 30.02 in 10.0 mi Calm Calm - N/A   Clear
4:51 PM 48.2 °F - 35.6 °F 62% 30.02 in 10.0 mi Calm Calm - N/A   Clear
5:11 PM 46.4 °F - 35.6 °F 66% 30.03 in 10.0 mi Calm Calm - N/A   Clear
5:31 PM 44.6 °F - 35.6 °F 71% 30.03 in 10.0 mi Calm Calm - N/A   Clear
5:51 PM 42.8 °F - 35.6 °F 76% 30.04 in 10.0 mi Calm Calm - N/A   Clear
6:11 PM 39.2 °F - 35.6 °F 87% 30.04 in 10.0 mi Calm Calm - N/A   Clear
6:31 PM 41.0 °F - 35.6 °F 81% 30.05 in 10.0 mi Calm Calm - N/A   Clear
6:51 PM 39.2 °F - 35.6 °F 87% 30.05 in 10.0 mi Calm Calm - N/A   Clear
7:11 PM 37.4 °F - 33.8 °F 87% 30.05 in 10.0 mi Calm Calm - N/A   Clear
7:31 PM 35.6 °F - 32.0 °F 87% 30.05 in 10.0 mi Calm Calm - N/A   Clear
7:51 PM 35.6 °F - 33.8 °F 93% 30.05 in 10.0 mi Calm Calm - N/A   Clear
8:11 PM 35.6 °F - 32.0 °F 87% 30.05 in 10.0 mi Calm Calm - N/A   Clear
8:31 PM 35.6 °F - 32.0 °F 87% 30.04 in 10.0 mi Calm Calm - N/A   Clear
9:12 PM 33.8 °F - 30.2 °F 87% 30.05 in 10.0 mi Calm Calm - N/A   Clear
9:31 PM 32.0 °F - 30.2 °F 93% 30.05 in 10.0 mi Calm Calm - N/A   Clear
9:51 PM 32.0 °F 28.7 °F 30.2 °F 93% 30.06 in 10.0 mi West 3.5 mph - N/A   Clear
10:12 PM 33.8 °F 30.8 °F 32.0 °F 93% 30.06 in 7.0 mi WNW 3.5 mph - N/A   Clear
10:31 PM 33.8 °F 28.6 °F 30.2 °F 87% 30.07 in 10.0 mi WNW 5.8 mph - N/A   Clear
10:51 PM 39.2 °F 35.0 °F 35.6 °F 87% 30.07 in 10.0 mi NW 5.8 mph - N/A   Clear
11:12 PM 41.0 °F 37.1 °F 35.6 °F 81% 30.07 in 10.0 mi NW 5.8 mph - N/A   Clear
11:31 PM 42.8 °F 38.6 °F 35.6 °F 76% 30.07 in 10.0 mi NNW 6.9 mph - N/A   Clear
11:51 PM 39.2 °F 35.9 °F 35.6 °F 87% 30.08 in 10.0 mi NW 4.6 mph - N/A   Clear